Location: Stockholm
(59.3333°N, 18.0500°E)
Time: 23:47:50
(UTC+02:00)

ISS - Pass Details

Date: 28 July 2019
Orbit: 410 x 421 km, 51.6° (Epoch: 24 August)

Event Time Altitude Azimuth Distance (km) Brightness Sun altitude
Rises 22:39:52 0° 263° (W) 2,375 0.4 -7.1°
Reaches altitude 10° 22:42:48 10° 236° (SW) 1,505 -1.0 -7.3°
Maximum altitude 22:44:29 13° 205° (SSW) 1,316 -1.6 -7.4°
Drops below altitude 10° 22:46:11 10° 175° (S) 1,499 -1.5 -7.5°
Enters shadow 22:46:32 - 170° (S) 1,577 -1.4 -7.5°
